Index of /20260505/WXO-DD/model_caps/3km/12/003
Name Last modified Size Description
Parent Directory -
20260505T12Z_MSC_CAPS_AbsoluteVorticity_IsbL-0250_RLatLon0.03_PT003H.grib2 2026-05-05 18:08 908K
20260505T12Z_MSC_CAPS_AbsoluteVorticity_IsbL-0500_RLatLon0.03_PT003H.grib2 2026-05-05 18:08 1.3M
20260505T12Z_MSC_CAPS_AbsoluteVorticity_IsbL-0700_RLatLon0.03_PT003H.grib2 2026-05-05 18:08 1.0M
20260505T12Z_MSC_CAPS_AbsoluteVorticity_IsbL-0850_RLatLon0.03_PT003H.grib2 2026-05-05 18:08 1.3M
20260505T12Z_MSC_CAPS_AbsoluteVorticity_IsbL-1000_RLatLon0.03_PT003H.grib2 2026-05-05 18:08 1.4M
20260505T12Z_MSC_CAPS_AirDensity_AGL-120m_RLatLon0.03_PT003H.grib2 2026-05-05 18:08 1.4M
20260505T12Z_MSC_CAPS_AirDensity_AGL-40m_RLatLon0.03_PT003H.grib2 2026-05-05 18:08 1.5M
20260505T12Z_MSC_CAPS_AirDensity_AGL-80m_RLatLon0.03_PT003H.grib2 2026-05-05 18:08 1.4M
20260505T12Z_MSC_CAPS_AirTemp_AGL-120m_RLatLon0.03_PT003H.grib2 2026-05-05 18:08 1.4M
20260505T12Z_MSC_CAPS_AirTemp_AGL-2m_RLatLon0.03_PT003H.grib2 2026-05-05 18:08 1.8M
20260505T12Z_MSC_CAPS_AirTemp_AGL-40m_RLatLon0.03_PT003H.grib2 2026-05-05 18:08 1.5M
20260505T12Z_MSC_CAPS_AirTemp_AGL-80m_RLatLon0.03_PT003H.grib2 2026-05-05 18:08 1.5M
20260505T12Z_MSC_CAPS_AirTemp_IsbL-0050_RLatLon0.03_PT003H.grib2 2026-05-05 18:08 702K
20260505T12Z_MSC_CAPS_AirTemp_IsbL-0100_RLatLon0.03_PT003H.grib2 2026-05-05 18:08 947K
20260505T12Z_MSC_CAPS_AirTemp_IsbL-0150_RLatLon0.03_PT003H.grib2 2026-05-05 18:08 739K
20260505T12Z_MSC_CAPS_AirTemp_IsbL-0175_RLatLon0.03_PT003H.grib2 2026-05-05 18:08 765K
20260505T12Z_MSC_CAPS_AirTemp_IsbL-0200_RLatLon0.03_PT003H.grib2 2026-05-05 18:08 788K
20260505T12Z_MSC_CAPS_AirTemp_IsbL-0225_RLatLon0.03_PT003H.grib2 2026-05-05 18:08 788K
20260505T12Z_MSC_CAPS_AirTemp_IsbL-0250_RLatLon0.03_PT003H.grib2 2026-05-05 18:08 1.0M
20260505T12Z_MSC_CAPS_AirTemp_IsbL-0275_RLatLon0.03_PT003H.grib2 2026-05-05 18:08 1.0M
20260505T12Z_MSC_CAPS_AirTemp_IsbL-0300_RLatLon0.03_PT003H.grib2 2026-05-05 18:08 1.0M
20260505T12Z_MSC_CAPS_AirTemp_IsbL-0350_RLatLon0.03_PT003H.grib2 2026-05-05 18:08 756K
20260505T12Z_MSC_CAPS_AirTemp_IsbL-0400_RLatLon0.03_PT003H.grib2 2026-05-05 18:08 763K
20260505T12Z_MSC_CAPS_AirTemp_IsbL-0450_RLatLon0.03_PT003H.grib2 2026-05-05 18:08 775K
20260505T12Z_MSC_CAPS_AirTemp_IsbL-0500_RLatLon0.03_PT003H.grib2 2026-05-05 18:08 787K
20260505T12Z_MSC_CAPS_AirTemp_IsbL-0550_RLatLon0.03_PT003H.grib2 2026-05-05 18:08 801K
20260505T12Z_MSC_CAPS_AirTemp_IsbL-0600_RLatLon0.03_PT003H.grib2 2026-05-05 18:08 816K
20260505T12Z_MSC_CAPS_AirTemp_IsbL-0650_RLatLon0.03_PT003H.grib2 2026-05-05 18:08 838K
20260505T12Z_MSC_CAPS_AirTemp_IsbL-0700_RLatLon0.03_PT003H.grib2 2026-05-05 18:08 1.0M
20260505T12Z_MSC_CAPS_AirTemp_IsbL-0750_RLatLon0.03_PT003H.grib2 2026-05-05 18:08 1.0M
20260505T12Z_MSC_CAPS_AirTemp_IsbL-0800_RLatLon0.03_PT003H.grib2 2026-05-05 18:08 1.1M
20260505T12Z_MSC_CAPS_AirTemp_IsbL-0850_RLatLon0.03_PT003H.grib2 2026-05-05 18:08 1.1M
20260505T12Z_MSC_CAPS_AirTemp_IsbL-0875_RLatLon0.03_PT003H.grib2 2026-05-05 18:08 1.1M
20260505T12Z_MSC_CAPS_AirTemp_IsbL-0900_RLatLon0.03_PT003H.grib2 2026-05-05 18:08 1.1M
20260505T12Z_MSC_CAPS_AirTemp_IsbL-0925_RLatLon0.03_PT003H.grib2 2026-05-05 18:08 1.1M
20260505T12Z_MSC_CAPS_AirTemp_IsbL-0950_RLatLon0.03_PT003H.grib2 2026-05-05 18:08 1.1M
20260505T12Z_MSC_CAPS_AirTemp_IsbL-0970_RLatLon0.03_PT003H.grib2 2026-05-05 18:08 1.1M
20260505T12Z_MSC_CAPS_AirTemp_IsbL-0985_RLatLon0.03_PT003H.grib2 2026-05-05 18:08 1.0M
20260505T12Z_MSC_CAPS_AirTemp_IsbL-1000_RLatLon0.03_PT003H.grib2 2026-05-05 18:08 1.0M
20260505T12Z_MSC_CAPS_AirTemp_IsbL-1015_RLatLon0.03_PT003H.grib2 2026-05-05 18:08 855K
20260505T12Z_MSC_CAPS_Albedo_Sfc_RLatLon0.03_PT003H.grib2 2026-05-05 18:08 2.7M
20260505T12Z_MSC_CAPS_CAPE_Sfc_RLatLon0.03_PT003H.grib2 2026-05-05 18:08 223K
20260505T12Z_MSC_CAPS_CloudWater_EAtm_RLatLon0.03_PT003H.grib2 2026-05-05 18:08 1.4M
20260505T12Z_MSC_CAPS_ConvectivePrecip-Accum_Sfc_RLatLon0.03_PT003H.grib2 2026-05-05 18:08 1.4M
20260505T12Z_MSC_CAPS_DewPointDepression_AGL-120m_RLatLon0.03_PT003H.grib2 2026-05-05 18:08 2.0M
20260505T12Z_MSC_CAPS_DewPointDepression_AGL-2m_RLatLon0.03_PT003H.grib2 2026-05-05 18:08 2.1M
20260505T12Z_MSC_CAPS_DewPointDepression_AGL-40m_RLatLon0.03_PT003H.grib2 2026-05-05 18:08 2.1M
20260505T12Z_MSC_CAPS_DewPointDepression_AGL-80m_RLatLon0.03_PT003H.grib2 2026-05-05 18:08 2.0M
20260505T12Z_MSC_CAPS_DewPointDepression_IsbL-0050_RLatLon0.03_PT003H.grib2 2026-05-05 18:08 3.8K
20260505T12Z_MSC_CAPS_DewPointDepression_IsbL-0100_RLatLon0.03_PT003H.grib2 2026-05-05 18:08 62K
20260505T12Z_MSC_CAPS_DewPointDepression_IsbL-0150_RLatLon0.03_PT003H.grib2 2026-05-05 18:08 61K
20260505T12Z_MSC_CAPS_DewPointDepression_IsbL-0175_RLatLon0.03_PT003H.grib2 2026-05-05 18:08 179K
20260505T12Z_MSC_CAPS_DewPointDepression_IsbL-0200_RLatLon0.03_PT003H.grib2 2026-05-05 18:08 361K
20260505T12Z_MSC_CAPS_DewPointDepression_IsbL-0225_RLatLon0.03_PT003H.grib2 2026-05-05 18:08 578K
20260505T12Z_MSC_CAPS_DewPointDepression_IsbL-0250_RLatLon0.03_PT003H.grib2 2026-05-05 18:08 806K
20260505T12Z_MSC_CAPS_DewPointDepression_IsbL-0275_RLatLon0.03_PT003H.grib2 2026-05-05 18:08 931K
20260505T12Z_MSC_CAPS_DewPointDepression_IsbL-0300_RLatLon0.03_PT003H.grib2 2026-05-05 18:08 1.0M
20260505T12Z_MSC_CAPS_DewPointDepression_IsbL-0350_RLatLon0.03_PT003H.grib2 2026-05-05 18:08 1.0M
20260505T12Z_MSC_CAPS_DewPointDepression_IsbL-0400_RLatLon0.03_PT003H.grib2 2026-05-05 18:08 1.0M
20260505T12Z_MSC_CAPS_DewPointDepression_IsbL-0450_RLatLon0.03_PT003H.grib2 2026-05-05 18:08 1.1M
20260505T12Z_MSC_CAPS_DewPointDepression_IsbL-0500_RLatLon0.03_PT003H.grib2 2026-05-05 18:08 1.1M
20260505T12Z_MSC_CAPS_DewPointDepression_IsbL-0550_RLatLon0.03_PT003H.grib2 2026-05-05 18:08 1.1M
20260505T12Z_MSC_CAPS_DewPointDepression_IsbL-0600_RLatLon0.03_PT003H.grib2 2026-05-05 18:08 1.1M
20260505T12Z_MSC_CAPS_DewPointDepression_IsbL-0650_RLatLon0.03_PT003H.grib2 2026-05-05 18:08 1.2M
20260505T12Z_MSC_CAPS_DewPointDepression_IsbL-0700_RLatLon0.03_PT003H.grib2 2026-05-05 18:08 1.2M
20260505T12Z_MSC_CAPS_DewPointDepression_IsbL-0750_RLatLon0.03_PT003H.grib2 2026-05-05 18:08 1.2M
20260505T12Z_MSC_CAPS_DewPointDepression_IsbL-0800_RLatLon0.03_PT003H.grib2 2026-05-05 18:08 1.2M
20260505T12Z_MSC_CAPS_DewPointDepression_IsbL-0850_RLatLon0.03_PT003H.grib2 2026-05-05 18:08 1.3M
20260505T12Z_MSC_CAPS_DewPointDepression_IsbL-0875_RLatLon0.03_PT003H.grib2 2026-05-05 18:08 1.3M
20260505T12Z_MSC_CAPS_DewPointDepression_IsbL-0900_RLatLon0.03_PT003H.grib2 2026-05-05 18:08 1.3M
20260505T12Z_MSC_CAPS_DewPointDepression_IsbL-0925_RLatLon0.03_PT003H.grib2 2026-05-05 18:08 1.3M
20260505T12Z_MSC_CAPS_DewPointDepression_IsbL-0950_RLatLon0.03_PT003H.grib2 2026-05-05 18:08 1.3M
20260505T12Z_MSC_CAPS_DewPointDepression_IsbL-0970_RLatLon0.03_PT003H.grib2 2026-05-05 18:08 1.3M
20260505T12Z_MSC_CAPS_DewPointDepression_IsbL-0985_RLatLon0.03_PT003H.grib2 2026-05-05 18:08 1.3M
20260505T12Z_MSC_CAPS_DewPointDepression_IsbL-1000_RLatLon0.03_PT003H.grib2 2026-05-05 18:08 1.3M
20260505T12Z_MSC_CAPS_DewPointDepression_IsbL-1015_RLatLon0.03_PT003H.grib2 2026-05-05 18:08 1.3M
20260505T12Z_MSC_CAPS_DewPoint_AGL-120m_RLatLon0.03_PT003H.grib2 2026-05-05 18:08 3.6M
20260505T12Z_MSC_CAPS_DewPoint_AGL-2m_RLatLon0.03_PT003H.grib2 2026-05-05 18:08 1.8M
20260505T12Z_MSC_CAPS_DewPoint_AGL-40m_RLatLon0.03_PT003H.grib2 2026-05-05 18:08 3.7M
20260505T12Z_MSC_CAPS_DewPoint_AGL-80m_RLatLon0.03_PT003H.grib2 2026-05-05 18:08 3.6M
20260505T12Z_MSC_CAPS_DownwardLongwaveRadiationFlux-Accum_Sfc_RLatLon0.03_PT003H.grib2 2026-05-05 18:08 2.6M
20260505T12Z_MSC_CAPS_DownwardShortwaveRadiationFlux-Accum_NTAtm_RLatLon0.03_PT003H.grib2 2026-05-05 18:08 423K
20260505T12Z_MSC_CAPS_DownwardShortwaveRadiationFlux-Accum_Sfc_RLatLon0.03_PT003H.grib2 2026-05-05 18:08 1.9M
20260505T12Z_MSC_CAPS_FreezingRain-Accum_Sfc_RLatLon0.03_PT003H.grib2 2026-05-05 18:08 260K
20260505T12Z_MSC_CAPS_GeopotentialHeight_IsbL-0050_RLatLon0.03_PT003H.grib2 2026-05-05 18:08 632K
20260505T12Z_MSC_CAPS_GeopotentialHeight_IsbL-0100_RLatLon0.03_PT003H.grib2 2026-05-05 18:08 821K
20260505T12Z_MSC_CAPS_GeopotentialHeight_IsbL-0150_RLatLon0.03_PT003H.grib2 2026-05-05 18:08 610K
20260505T12Z_MSC_CAPS_GeopotentialHeight_IsbL-0175_RLatLon0.03_PT003H.grib2 2026-05-05 18:08 722K
20260505T12Z_MSC_CAPS_GeopotentialHeight_IsbL-0200_RLatLon0.03_PT003H.grib2 2026-05-05 18:08 739K
20260505T12Z_MSC_CAPS_GeopotentialHeight_IsbL-0225_RLatLon0.03_PT003H.grib2 2026-05-05 18:08 757K
20260505T12Z_MSC_CAPS_GeopotentialHeight_IsbL-0250_RLatLon0.03_PT003H.grib2 2026-05-05 18:08 767K
20260505T12Z_MSC_CAPS_GeopotentialHeight_IsbL-0275_RLatLon0.03_PT003H.grib2 2026-05-05 18:08 775K
20260505T12Z_MSC_CAPS_GeopotentialHeight_IsbL-0300_RLatLon0.03_PT003H.grib2 2026-05-05 18:08 780K
20260505T12Z_MSC_CAPS_GeopotentialHeight_IsbL-0350_RLatLon0.03_PT003H.grib2 2026-05-05 18:08 784K
20260505T12Z_MSC_CAPS_GeopotentialHeight_IsbL-0400_RLatLon0.03_PT003H.grib2 2026-05-05 18:08 779K
20260505T12Z_MSC_CAPS_GeopotentialHeight_IsbL-0450_RLatLon0.03_PT003H.grib2 2026-05-05 18:08 772K
20260505T12Z_MSC_CAPS_GeopotentialHeight_IsbL-0500_RLatLon0.03_PT003H.grib2 2026-05-05 18:08 764K
20260505T12Z_MSC_CAPS_GeopotentialHeight_IsbL-0550_RLatLon0.03_PT003H.grib2 2026-05-05 18:08 646K
20260505T12Z_MSC_CAPS_GeopotentialHeight_IsbL-0600_RLatLon0.03_PT003H.grib2 2026-05-05 18:08 643K
20260505T12Z_MSC_CAPS_GeopotentialHeight_IsbL-0650_RLatLon0.03_PT003H.grib2 2026-05-05 18:08 815K
20260505T12Z_MSC_CAPS_GeopotentialHeight_IsbL-0700_RLatLon0.03_PT003H.grib2 2026-05-05 18:08 815K
20260505T12Z_MSC_CAPS_GeopotentialHeight_IsbL-0750_RLatLon0.03_PT003H.grib2 2026-05-05 18:08 896K
20260505T12Z_MSC_CAPS_GeopotentialHeight_IsbL-0800_RLatLon0.03_PT003H.grib2 2026-05-05 18:08 827K
20260505T12Z_MSC_CAPS_GeopotentialHeight_IsbL-0850_RLatLon0.03_PT003H.grib2 2026-05-05 18:08 839K
20260505T12Z_MSC_CAPS_GeopotentialHeight_IsbL-0875_RLatLon0.03_PT003H.grib2 2026-05-05 18:08 831K
20260505T12Z_MSC_CAPS_GeopotentialHeight_IsbL-0900_RLatLon0.03_PT003H.grib2 2026-05-05 18:08 854K
20260505T12Z_MSC_CAPS_GeopotentialHeight_IsbL-0925_RLatLon0.03_PT003H.grib2 2026-05-05 18:08 847K
20260505T12Z_MSC_CAPS_GeopotentialHeight_IsbL-0950_RLatLon0.03_PT003H.grib2 2026-05-05 18:08 683K
20260505T12Z_MSC_CAPS_GeopotentialHeight_IsbL-0970_RLatLon0.03_PT003H.grib2 2026-05-05 18:08 690K
20260505T12Z_MSC_CAPS_GeopotentialHeight_IsbL-0985_RLatLon0.03_PT003H.grib2 2026-05-05 18:08 696K
20260505T12Z_MSC_CAPS_GeopotentialHeight_IsbL-1000_RLatLon0.03_PT003H.grib2 2026-05-05 18:08 701K
20260505T12Z_MSC_CAPS_GeopotentialHeight_IsbL-1015_RLatLon0.03_PT003H.grib2 2026-05-05 18:08 708K
20260505T12Z_MSC_CAPS_GeopotentialHeight_Sfc_RLatLon0.03_PT003H.grib2 2026-05-05 18:08 1.0M
20260505T12Z_MSC_CAPS_IcePellets-Accum_Sfc_RLatLon0.03_PT003H.grib2 2026-05-05 18:08 43K
20260505T12Z_MSC_CAPS_LatentHeatNetFlux_Sfc_RLatLon0.03_PT003H.grib2 2026-05-05 18:08 1.9M
20260505T12Z_MSC_CAPS_LiftedIndex-MU-VT_IsbL-0500_RLatLon0.03_PT003H.grib2 2026-05-05 18:08 3.3M
20260505T12Z_MSC_CAPS_MixedLayerThickness_Sfc_RLatLon0.03_PT003H.nc 2026-05-05 18:13 16M
20260505T12Z_MSC_CAPS_NetLongwaveRadiationFlux-Accum_Sfc_RLatLon0.03_PT003H.grib2 2026-05-05 18:08 2.9M
20260505T12Z_MSC_CAPS_NetShortwaveRadiationFlux-Accum_Sfc_RLatLon0.03_PT003H.grib2 2026-05-05 18:08 2.0M
20260505T12Z_MSC_CAPS_PlanetaryBoundaryLayerHeight_Sfc_RLatLon0.03_PT003H.grib2 2026-05-05 18:08 2.4M
20260505T12Z_MSC_CAPS_Precip-Accum_Sfc_RLatLon0.03_PT003H.grib2 2026-05-05 18:08 2.8M
20260505T12Z_MSC_CAPS_PrecipRate_Sfc_RLatLon0.03_PT003H.grib2 2026-05-05 18:08 206K
20260505T12Z_MSC_CAPS_PrecipType-Instant_Sfc_RLatLon0.03_PT003H.grib2 2026-05-05 18:08 1.5M
20260505T12Z_MSC_CAPS_Pressure_MSL_RLatLon0.03_PT003H.grib2 2026-05-05 18:08 933K
20260505T12Z_MSC_CAPS_Pressure_Sfc_RLatLon0.03_PT003H.grib2 2026-05-05 18:08 1.2M
20260505T12Z_MSC_CAPS_RadiativeTemp_Sfc_RLatLon0.03_PT003H.grib2 2026-05-05 18:08 2.1M
20260505T12Z_MSC_CAPS_Rain-Accum_Sfc_RLatLon0.03_PT003H.grib2 2026-05-05 18:08 1.3M
20260505T12Z_MSC_CAPS_RelativeHumidity_AGL-120m_RLatLon0.03_PT003H.grib2 2026-05-05 18:08 2.8M
20260505T12Z_MSC_CAPS_RelativeHumidity_AGL-2m_RLatLon0.03_PT003H.grib2 2026-05-05 18:08 2.9M
20260505T12Z_MSC_CAPS_RelativeHumidity_AGL-40m_RLatLon0.03_PT003H.grib2 2026-05-05 18:08 2.9M
20260505T12Z_MSC_CAPS_RelativeHumidity_AGL-80m_RLatLon0.03_PT003H.grib2 2026-05-05 18:08 2.8M
20260505T12Z_MSC_CAPS_RelativeHumidity_IsbL-0050_RLatLon0.03_PT003H.grib2 2026-05-05 18:08 957K
20260505T12Z_MSC_CAPS_RelativeHumidity_IsbL-0100_RLatLon0.03_PT003H.grib2 2026-05-05 18:08 840K
20260505T12Z_MSC_CAPS_RelativeHumidity_IsbL-0150_RLatLon0.03_PT003H.grib2 2026-05-05 18:08 577K
20260505T12Z_MSC_CAPS_RelativeHumidity_IsbL-0175_RLatLon0.03_PT003H.grib2 2026-05-05 18:08 458K
20260505T12Z_MSC_CAPS_RelativeHumidity_IsbL-0200_RLatLon0.03_PT003H.grib2 2026-05-05 18:08 632K
20260505T12Z_MSC_CAPS_RelativeHumidity_IsbL-0225_RLatLon0.03_PT003H.grib2 2026-05-05 18:08 845K
20260505T12Z_MSC_CAPS_RelativeHumidity_IsbL-0250_RLatLon0.03_PT003H.grib2 2026-05-05 18:08 1.0M
20260505T12Z_MSC_CAPS_RelativeHumidity_IsbL-0275_RLatLon0.03_PT003H.grib2 2026-05-05 18:08 1.3M
20260505T12Z_MSC_CAPS_RelativeHumidity_IsbL-0300_RLatLon0.03_PT003H.grib2 2026-05-05 18:08 1.4M
20260505T12Z_MSC_CAPS_RelativeHumidity_IsbL-0350_RLatLon0.03_PT003H.grib2 2026-05-05 18:08 1.9M
20260505T12Z_MSC_CAPS_RelativeHumidity_IsbL-0400_RLatLon0.03_PT003H.grib2 2026-05-05 18:08 1.8M
20260505T12Z_MSC_CAPS_RelativeHumidity_IsbL-0450_RLatLon0.03_PT003H.grib2 2026-05-05 18:08 1.9M
20260505T12Z_MSC_CAPS_RelativeHumidity_IsbL-0500_RLatLon0.03_PT003H.grib2 2026-05-05 18:08 2.0M
20260505T12Z_MSC_CAPS_RelativeHumidity_IsbL-0550_RLatLon0.03_PT003H.grib2 2026-05-05 18:08 2.0M
20260505T12Z_MSC_CAPS_RelativeHumidity_IsbL-0600_RLatLon0.03_PT003H.grib2 2026-05-05 18:08 2.1M
20260505T12Z_MSC_CAPS_RelativeHumidity_IsbL-0650_RLatLon0.03_PT003H.grib2 2026-05-05 18:08 2.1M
20260505T12Z_MSC_CAPS_RelativeHumidity_IsbL-0700_RLatLon0.03_PT003H.grib2 2026-05-05 18:08 2.2M
20260505T12Z_MSC_CAPS_RelativeHumidity_IsbL-0750_RLatLon0.03_PT003H.grib2 2026-05-05 18:08 2.2M
20260505T12Z_MSC_CAPS_RelativeHumidity_IsbL-0800_RLatLon0.03_PT003H.grib2 2026-05-05 18:08 2.3M
20260505T12Z_MSC_CAPS_RelativeHumidity_IsbL-0850_RLatLon0.03_PT003H.grib2 2026-05-05 18:08 2.5M
20260505T12Z_MSC_CAPS_RelativeHumidity_IsbL-0875_RLatLon0.03_PT003H.grib2 2026-05-05 18:08 2.5M
20260505T12Z_MSC_CAPS_RelativeHumidity_IsbL-0900_RLatLon0.03_PT003H.grib2 2026-05-05 18:08 2.5M
20260505T12Z_MSC_CAPS_RelativeHumidity_IsbL-0925_RLatLon0.03_PT003H.grib2 2026-05-05 18:08 2.6M
20260505T12Z_MSC_CAPS_RelativeHumidity_IsbL-0950_RLatLon0.03_PT003H.grib2 2026-05-05 18:08 2.7M
20260505T12Z_MSC_CAPS_RelativeHumidity_IsbL-0970_RLatLon0.03_PT003H.grib2 2026-05-05 18:08 2.7M
20260505T12Z_MSC_CAPS_RelativeHumidity_IsbL-0985_RLatLon0.03_PT003H.grib2 2026-05-05 18:08 2.8M
20260505T12Z_MSC_CAPS_RelativeHumidity_IsbL-1000_RLatLon0.03_PT003H.grib2 2026-05-05 18:08 2.9M
20260505T12Z_MSC_CAPS_RelativeHumidity_IsbL-1015_RLatLon0.03_PT003H.grib2 2026-05-05 18:08 2.9M
20260505T12Z_MSC_CAPS_Runoff-Accum_Sfc_RLatLon0.03_PT003H.grib2 2026-05-05 18:08 206K
20260505T12Z_MSC_CAPS_SeaIceAreaFraction_Sfc_RLatLon0.03_PT003H.nc 2026-05-05 18:13 15M
20260505T12Z_MSC_CAPS_SeaIceCompressiveStrength_Sfc_RLatLon0.03_PT003H.nc 2026-05-05 18:13 15M
20260505T12Z_MSC_CAPS_SeaIceDivergence_Sfc_RLatLon0.03_PT003H.nc 2026-05-05 18:13 15M
20260505T12Z_MSC_CAPS_SeaIceInternalPressure_Sfc_RLatLon0.03_PT003H.nc 2026-05-05 18:13 15M
20260505T12Z_MSC_CAPS_SeaIceShear_Sfc_RLatLon0.03_PT003H.nc 2026-05-05 18:13 15M
20260505T12Z_MSC_CAPS_SeaIceSnowTemp_Sfc_RLatLon0.03_PT003H.nc 2026-05-05 18:13 14M
20260505T12Z_MSC_CAPS_SeaIceSnowVolume_Sfc_RLatLon0.03_PT003H.nc 2026-05-05 18:13 15M
20260505T12Z_MSC_CAPS_SeaIceVelocityX_Sfc_RLatLon0.03_PT003H.nc 2026-05-05 18:13 15M
20260505T12Z_MSC_CAPS_SeaIceVelocityY_Sfc_RLatLon0.03_PT003H.nc 2026-05-05 18:13 15M
20260505T12Z_MSC_CAPS_SeaIceVolume_Sfc_RLatLon0.03_PT003H.nc 2026-05-05 18:13 15M
20260505T12Z_MSC_CAPS_SeaSurfaceHeight_Sfc_RLatLon0.03_PT003H.nc 2026-05-05 18:13 16M
20260505T12Z_MSC_CAPS_SeaWaterSalinity_DBS-0.5m_RLatLon0.03_PT003H.nc 2026-05-05 18:13 16M
20260505T12Z_MSC_CAPS_SeaWaterSalinity_DBS-all_RLatLon0.03_PT003H.nc 2026-05-05 18:13 107M
20260505T12Z_MSC_CAPS_SeaWaterTemp_DBS-0.5m_RLatLon0.03_PT003H.nc 2026-05-05 18:13 14M
20260505T12Z_MSC_CAPS_SeaWaterTemp_DBS-all_RLatLon0.03_PT003H.nc 2026-05-05 18:13 88M
20260505T12Z_MSC_CAPS_SeaWaterVelocityX_DBS-0.5m_RLatLon0.03_PT003H.nc 2026-05-05 18:13 17M
20260505T12Z_MSC_CAPS_SeaWaterVelocityX_DBS-all_RLatLon0.03_PT003H.nc 2026-05-05 18:13 210M
20260505T12Z_MSC_CAPS_SeaWaterVelocityY_DBS-0.5m_RLatLon0.03_PT003H.nc 2026-05-05 18:13 17M
20260505T12Z_MSC_CAPS_SeaWaterVelocityY_DBS-all_RLatLon0.03_PT003H.nc 2026-05-05 18:13 215M
20260505T12Z_MSC_CAPS_SensibleHeatNetFlux_Sfc_RLatLon0.03_PT003H.grib2 2026-05-05 18:08 2.1M
20260505T12Z_MSC_CAPS_ShowalterIndex_IsbL-0500_RLatLon0.03_PT003H.grib2 2026-05-05 18:08 4.3M
20260505T12Z_MSC_CAPS_Snow-Accum_Sfc_RLatLon0.03_PT003H.grib2 2026-05-05 18:08 1.8M
20260505T12Z_MSC_CAPS_SnowDensity_Sfc_RLatLon0.03_PT003H.grib2 2026-05-05 18:08 1.1M
20260505T12Z_MSC_CAPS_SnowDepthWaterEquivalent_Sfc_RLatLon0.03_PT003H.grib2 2026-05-05 18:08 646K
20260505T12Z_MSC_CAPS_SnowDepth_Sfc_RLatLon0.03_PT003H.grib2 2026-05-05 18:08 1.1M
20260505T12Z_MSC_CAPS_SoilTemp_DBS-0to10cm_RLatLon0.03_PT003H.grib2 2026-05-05 18:08 1.2M
20260505T12Z_MSC_CAPS_SoilTemp_Sfc_RLatLon0.03_PT003H.grib2 2026-05-05 18:08 1.8M
20260505T12Z_MSC_CAPS_SoilVolumetricIceContent_Sfc_RLatLon0.03_PT003H.grib2 2026-05-05 18:08 1.3M
20260505T12Z_MSC_CAPS_SoilVolumetricWaterContent_DBS-0to10cm_RLatLon0.03_PT003H.grib2 2026-05-05 18:08 1.2M
20260505T12Z_MSC_CAPS_SoilVolumetricWaterContent_DBS-0to1cm_RLatLon0.03_PT003H.grib2 2026-05-05 18:08 1.6M
20260505T12Z_MSC_CAPS_SpecificHumidity_AGL-120m_RLatLon0.03_PT003H.grib2 2026-05-05 18:08 1.4M
20260505T12Z_MSC_CAPS_SpecificHumidity_AGL-2m_RLatLon0.03_PT003H.grib2 2026-05-05 18:08 1.7M
20260505T12Z_MSC_CAPS_SpecificHumidity_AGL-40m_RLatLon0.03_PT003H.grib2 2026-05-05 18:08 1.5M
20260505T12Z_MSC_CAPS_SpecificHumidity_AGL-80m_RLatLon0.03_PT003H.grib2 2026-05-05 18:08 1.4M
20260505T12Z_MSC_CAPS_SpecificHumidity_IsbL-0050_RLatLon0.03_PT003H.grib2 2026-05-05 18:08 865K
20260505T12Z_MSC_CAPS_SpecificHumidity_IsbL-0100_RLatLon0.03_PT003H.grib2 2026-05-05 18:08 1.0M
20260505T12Z_MSC_CAPS_SpecificHumidity_IsbL-0150_RLatLon0.03_PT003H.grib2 2026-05-05 18:08 744K
20260505T12Z_MSC_CAPS_SpecificHumidity_IsbL-0175_RLatLon0.03_PT003H.grib2 2026-05-05 18:08 959K
20260505T12Z_MSC_CAPS_SpecificHumidity_IsbL-0200_RLatLon0.03_PT003H.grib2 2026-05-05 18:08 842K
20260505T12Z_MSC_CAPS_SpecificHumidity_IsbL-0225_RLatLon0.03_PT003H.grib2 2026-05-05 18:08 1.0M
20260505T12Z_MSC_CAPS_SpecificHumidity_IsbL-0250_RLatLon0.03_PT003H.grib2 2026-05-05 18:08 1.0M
20260505T12Z_MSC_CAPS_SpecificHumidity_IsbL-0275_RLatLon0.03_PT003H.grib2 2026-05-05 18:08 1.0M
20260505T12Z_MSC_CAPS_SpecificHumidity_IsbL-0300_RLatLon0.03_PT003H.grib2 2026-05-05 18:08 938K
20260505T12Z_MSC_CAPS_SpecificHumidity_IsbL-0350_RLatLon0.03_PT003H.grib2 2026-05-05 18:08 940K
20260505T12Z_MSC_CAPS_SpecificHumidity_IsbL-0400_RLatLon0.03_PT003H.grib2 2026-05-05 18:08 1.1M
20260505T12Z_MSC_CAPS_SpecificHumidity_IsbL-0450_RLatLon0.03_PT003H.grib2 2026-05-05 18:08 1.0M
20260505T12Z_MSC_CAPS_SpecificHumidity_IsbL-0500_RLatLon0.03_PT003H.grib2 2026-05-05 18:08 1.0M
20260505T12Z_MSC_CAPS_SpecificHumidity_IsbL-0550_RLatLon0.03_PT003H.grib2 2026-05-05 18:08 1.1M
20260505T12Z_MSC_CAPS_SpecificHumidity_IsbL-0600_RLatLon0.03_PT003H.grib2 2026-05-05 18:08 1.4M
20260505T12Z_MSC_CAPS_SpecificHumidity_IsbL-0650_RLatLon0.03_PT003H.grib2 2026-05-05 18:08 1.4M
20260505T12Z_MSC_CAPS_SpecificHumidity_IsbL-0700_RLatLon0.03_PT003H.grib2 2026-05-05 18:08 1.2M
20260505T12Z_MSC_CAPS_SpecificHumidity_IsbL-0750_RLatLon0.03_PT003H.grib2 2026-05-05 18:08 1.3M
20260505T12Z_MSC_CAPS_SpecificHumidity_IsbL-0800_RLatLon0.03_PT003H.grib2 2026-05-05 18:08 1.4M
20260505T12Z_MSC_CAPS_SpecificHumidity_IsbL-0850_RLatLon0.03_PT003H.grib2 2026-05-05 18:08 1.6M
20260505T12Z_MSC_CAPS_SpecificHumidity_IsbL-0875_RLatLon0.03_PT003H.grib2 2026-05-05 18:08 1.7M
20260505T12Z_MSC_CAPS_SpecificHumidity_IsbL-0900_RLatLon0.03_PT003H.grib2 2026-05-05 18:08 1.7M
20260505T12Z_MSC_CAPS_SpecificHumidity_IsbL-0925_RLatLon0.03_PT003H.grib2 2026-05-05 18:08 1.8M
20260505T12Z_MSC_CAPS_SpecificHumidity_IsbL-0950_RLatLon0.03_PT003H.grib2 2026-05-05 18:08 1.9M
20260505T12Z_MSC_CAPS_SpecificHumidity_IsbL-0970_RLatLon0.03_PT003H.grib2 2026-05-05 18:08 1.5M
20260505T12Z_MSC_CAPS_SpecificHumidity_IsbL-0985_RLatLon0.03_PT003H.grib2 2026-05-05 18:08 1.6M
20260505T12Z_MSC_CAPS_SpecificHumidity_IsbL-1000_RLatLon0.03_PT003H.grib2 2026-05-05 18:08 1.7M
20260505T12Z_MSC_CAPS_SpecificHumidity_IsbL-1015_RLatLon0.03_PT003H.grib2 2026-05-05 18:08 1.7M
20260505T12Z_MSC_CAPS_SpecificHumidity_Sfc_RLatLon0.03_PT003H.grib2 2026-05-05 18:08 2.1M
20260505T12Z_MSC_CAPS_StormRelativeHelicity_Sfc_RLatLon0.03_PT003H.grib2 2026-05-05 18:08 3.3M
20260505T12Z_MSC_CAPS_Thickness_IsbL-1000to0500_RLatLon0.03_PT003H.grib2 2026-05-05 18:08 433K
20260505T12Z_MSC_CAPS_TotalCloudCover_Sfc_RLatLon0.03_PT003H.grib2 2026-05-05 18:08 3.3M
20260505T12Z_MSC_CAPS_TurboclineDepth_Sfc_RLatLon0.03_PT003H.nc 2026-05-05 18:13 15M
20260505T12Z_MSC_CAPS_UpwardLongwaveRadiationFlux_NTAtm_RLatLon0.03_PT003H.grib2 2026-05-05 18:08 2.7M
20260505T12Z_MSC_CAPS_UpwardShortwaveRadiationFlux_NTAtm_RLatLon0.03_PT003H.grib2 2026-05-05 18:08 2.4M
20260505T12Z_MSC_CAPS_VerticalVelocity_IsbL-0250_RLatLon0.03_PT003H.grib2 2026-05-05 18:08 748K
20260505T12Z_MSC_CAPS_VerticalVelocity_IsbL-0500_RLatLon0.03_PT003H.grib2 2026-05-05 18:08 1.0M
20260505T12Z_MSC_CAPS_VerticalVelocity_IsbL-0700_RLatLon0.03_PT003H.grib2 2026-05-05 18:08 1.1M
20260505T12Z_MSC_CAPS_VerticalVelocity_IsbL-0850_RLatLon0.03_PT003H.grib2 2026-05-05 18:08 1.1M
20260505T12Z_MSC_CAPS_VerticalVelocity_IsbL-1000_RLatLon0.03_PT003H.grib2 2026-05-05 18:08 1.4M
20260505T12Z_MSC_CAPS_WindDir_AGL-10m_RLatLon0.03_PT003H.grib2 2026-05-05 18:08 2.4M
20260505T12Z_MSC_CAPS_WindDir_AGL-120m_RLatLon0.03_PT003H.grib2 2026-05-05 18:08 1.2M
20260505T12Z_MSC_CAPS_WindDir_AGL-40m_RLatLon0.03_PT003H.grib2 2026-05-05 18:08 1.4M
20260505T12Z_MSC_CAPS_WindDir_AGL-80m_RLatLon0.03_PT003H.grib2 2026-05-05 18:08 1.3M
20260505T12Z_MSC_CAPS_WindDir_IsbL-0050_RLatLon0.03_PT003H.grib2 2026-05-05 18:08 1.1M
20260505T12Z_MSC_CAPS_WindDir_IsbL-0100_RLatLon0.03_PT003H.grib2 2026-05-05 18:08 1.0M
20260505T12Z_MSC_CAPS_WindDir_IsbL-0150_RLatLon0.03_PT003H.grib2 2026-05-05 18:08 1.0M
20260505T12Z_MSC_CAPS_WindDir_IsbL-0175_RLatLon0.03_PT003H.grib2 2026-05-05 18:08 1.0M
20260505T12Z_MSC_CAPS_WindDir_IsbL-0200_RLatLon0.03_PT003H.grib2 2026-05-05 18:08 1.1M
20260505T12Z_MSC_CAPS_WindDir_IsbL-0225_RLatLon0.03_PT003H.grib2 2026-05-05 18:08 1.1M
20260505T12Z_MSC_CAPS_WindDir_IsbL-0250_RLatLon0.03_PT003H.grib2 2026-05-05 18:08 1.1M
20260505T12Z_MSC_CAPS_WindDir_IsbL-0275_RLatLon0.03_PT003H.grib2 2026-05-05 18:08 1.1M
20260505T12Z_MSC_CAPS_WindDir_IsbL-0300_RLatLon0.03_PT003H.grib2 2026-05-05 18:08 1.1M
20260505T12Z_MSC_CAPS_WindDir_IsbL-0350_RLatLon0.03_PT003H.grib2 2026-05-05 18:08 1.1M
20260505T12Z_MSC_CAPS_WindDir_IsbL-0400_RLatLon0.03_PT003H.grib2 2026-05-05 18:08 1.1M
20260505T12Z_MSC_CAPS_WindDir_IsbL-0450_RLatLon0.03_PT003H.grib2 2026-05-05 18:08 1.2M
20260505T12Z_MSC_CAPS_WindDir_IsbL-0500_RLatLon0.03_PT003H.grib2 2026-05-05 18:08 1.2M
20260505T12Z_MSC_CAPS_WindDir_IsbL-0550_RLatLon0.03_PT003H.grib2 2026-05-05 18:08 1.3M
20260505T12Z_MSC_CAPS_WindDir_IsbL-0600_RLatLon0.03_PT003H.grib2 2026-05-05 18:08 1.3M
20260505T12Z_MSC_CAPS_WindDir_IsbL-0650_RLatLon0.03_PT003H.grib2 2026-05-05 18:08 1.4M
20260505T12Z_MSC_CAPS_WindDir_IsbL-0700_RLatLon0.03_PT003H.grib2 2026-05-05 18:08 1.5M
20260505T12Z_MSC_CAPS_WindDir_IsbL-0750_RLatLon0.03_PT003H.grib2 2026-05-05 18:08 1.6M
20260505T12Z_MSC_CAPS_WindDir_IsbL-0800_RLatLon0.03_PT003H.grib2 2026-05-05 18:08 1.6M
20260505T12Z_MSC_CAPS_WindDir_IsbL-0850_RLatLon0.03_PT003H.grib2 2026-05-05 18:08 1.7M
20260505T12Z_MSC_CAPS_WindDir_IsbL-0875_RLatLon0.03_PT003H.grib2 2026-05-05 18:08 1.8M
20260505T12Z_MSC_CAPS_WindDir_IsbL-0900_RLatLon0.03_PT003H.grib2 2026-05-05 18:08 1.9M
20260505T12Z_MSC_CAPS_WindDir_IsbL-0925_RLatLon0.03_PT003H.grib2 2026-05-05 18:08 1.9M
20260505T12Z_MSC_CAPS_WindDir_IsbL-0950_RLatLon0.03_PT003H.grib2 2026-05-05 18:08 2.0M
20260505T12Z_MSC_CAPS_WindDir_IsbL-0970_RLatLon0.03_PT003H.grib2 2026-05-05 18:08 2.1M
20260505T12Z_MSC_CAPS_WindDir_IsbL-0985_RLatLon0.03_PT003H.grib2 2026-05-05 18:08 2.2M
20260505T12Z_MSC_CAPS_WindDir_IsbL-1000_RLatLon0.03_PT003H.grib2 2026-05-05 18:08 2.3M
20260505T12Z_MSC_CAPS_WindDir_IsbL-1015_RLatLon0.03_PT003H.grib2 2026-05-05 18:08 2.3M
20260505T12Z_MSC_CAPS_WindGust-Max_AGL-10m_RLatLon0.03_PT003H.grib2 2026-05-05 18:08 2.4M
20260505T12Z_MSC_CAPS_WindGust-Min_AGL-10m_RLatLon0.03_PT003H.grib2 2026-05-05 18:08 2.4M
20260505T12Z_MSC_CAPS_WindGust_AGL-10m_RLatLon0.03_PT003H.grib2 2026-05-05 18:08 2.5M
20260505T12Z_MSC_CAPS_WindSpeed_AGL-10m_RLatLon0.03_PT003H.grib2 2026-05-05 18:08 2.1M
20260505T12Z_MSC_CAPS_WindSpeed_AGL-120m_RLatLon0.03_PT003H.grib2 2026-05-05 18:08 1.2M
20260505T12Z_MSC_CAPS_WindSpeed_AGL-40m_RLatLon0.03_PT003H.grib2 2026-05-05 18:08 1.2M
20260505T12Z_MSC_CAPS_WindSpeed_AGL-80m_RLatLon0.03_PT003H.grib2 2026-05-05 18:08 1.2M
20260505T12Z_MSC_CAPS_WindSpeed_IsbL-0050_RLatLon0.03_PT003H.grib2 2026-05-05 18:08 1.3M
20260505T12Z_MSC_CAPS_WindSpeed_IsbL-0100_RLatLon0.03_PT003H.grib2 2026-05-05 18:08 1.3M
20260505T12Z_MSC_CAPS_WindSpeed_IsbL-0150_RLatLon0.03_PT003H.grib2 2026-05-05 18:08 1.0M
20260505T12Z_MSC_CAPS_WindSpeed_IsbL-0175_RLatLon0.03_PT003H.grib2 2026-05-05 18:08 1.1M
20260505T12Z_MSC_CAPS_WindSpeed_IsbL-0200_RLatLon0.03_PT003H.grib2 2026-05-05 18:08 1.2M
20260505T12Z_MSC_CAPS_WindSpeed_IsbL-0225_RLatLon0.03_PT003H.grib2 2026-05-05 18:08 954K
20260505T12Z_MSC_CAPS_WindSpeed_IsbL-0250_RLatLon0.03_PT003H.grib2 2026-05-05 18:08 972K
20260505T12Z_MSC_CAPS_WindSpeed_IsbL-0275_RLatLon0.03_PT003H.grib2 2026-05-05 18:08 1.0M
20260505T12Z_MSC_CAPS_WindSpeed_IsbL-0300_RLatLon0.03_PT003H.grib2 2026-05-05 18:08 1.0M
20260505T12Z_MSC_CAPS_WindSpeed_IsbL-0350_RLatLon0.03_PT003H.grib2 2026-05-05 18:08 1.0M
20260505T12Z_MSC_CAPS_WindSpeed_IsbL-0400_RLatLon0.03_PT003H.grib2 2026-05-05 18:08 1.0M
20260505T12Z_MSC_CAPS_WindSpeed_IsbL-0450_RLatLon0.03_PT003H.grib2 2026-05-05 18:08 1.0M
20260505T12Z_MSC_CAPS_WindSpeed_IsbL-0500_RLatLon0.03_PT003H.grib2 2026-05-05 18:08 1.4M
20260505T12Z_MSC_CAPS_WindSpeed_IsbL-0550_RLatLon0.03_PT003H.grib2 2026-05-05 18:08 1.3M
20260505T12Z_MSC_CAPS_WindSpeed_IsbL-0600_RLatLon0.03_PT003H.grib2 2026-05-05 18:08 1.5M
20260505T12Z_MSC_CAPS_WindSpeed_IsbL-0650_RLatLon0.03_PT003H.grib2 2026-05-05 18:08 1.4M
20260505T12Z_MSC_CAPS_WindSpeed_IsbL-0700_RLatLon0.03_PT003H.grib2 2026-05-05 18:08 1.5M
20260505T12Z_MSC_CAPS_WindSpeed_IsbL-0750_RLatLon0.03_PT003H.grib2 2026-05-05 18:08 1.5M
20260505T12Z_MSC_CAPS_WindSpeed_IsbL-0800_RLatLon0.03_PT003H.grib2 2026-05-05 18:08 1.5M
20260505T12Z_MSC_CAPS_WindSpeed_IsbL-0850_RLatLon0.03_PT003H.grib2 2026-05-05 18:08 1.8M
20260505T12Z_MSC_CAPS_WindSpeed_IsbL-0875_RLatLon0.03_PT003H.grib2 2026-05-05 18:08 1.8M
20260505T12Z_MSC_CAPS_WindSpeed_IsbL-0900_RLatLon0.03_PT003H.grib2 2026-05-05 18:08 1.8M
20260505T12Z_MSC_CAPS_WindSpeed_IsbL-0925_RLatLon0.03_PT003H.grib2 2026-05-05 18:08 1.9M
20260505T12Z_MSC_CAPS_WindSpeed_IsbL-0950_RLatLon0.03_PT003H.grib2 2026-05-05 18:08 1.8M
20260505T12Z_MSC_CAPS_WindSpeed_IsbL-0970_RLatLon0.03_PT003H.grib2 2026-05-05 18:08 2.0M
20260505T12Z_MSC_CAPS_WindSpeed_IsbL-0985_RLatLon0.03_PT003H.grib2 2026-05-05 18:08 2.1M
20260505T12Z_MSC_CAPS_WindSpeed_IsbL-1000_RLatLon0.03_PT003H.grib2 2026-05-05 18:08 2.1M
20260505T12Z_MSC_CAPS_WindSpeed_IsbL-1015_RLatLon0.03_PT003H.grib2 2026-05-05 18:08 2.1M
20260505T12Z_MSC_CAPS_WindU_AGL-10m_RLatLon0.03_PT003H.grib2 2026-05-05 18:08 1.9M
20260505T12Z_MSC_CAPS_WindU_AGL-120m_RLatLon0.03_PT003H.grib2 2026-05-05 18:08 933K
20260505T12Z_MSC_CAPS_WindU_AGL-40m_RLatLon0.03_PT003H.grib2 2026-05-05 18:08 1.2M
20260505T12Z_MSC_CAPS_WindU_AGL-80m_RLatLon0.03_PT003H.grib2 2026-05-05 18:08 935K
20260505T12Z_MSC_CAPS_WindU_IsbL-0050_RLatLon0.03_PT003H.grib2 2026-05-05 18:08 958K
20260505T12Z_MSC_CAPS_WindU_IsbL-0100_RLatLon0.03_PT003H.grib2 2026-05-05 18:08 964K
20260505T12Z_MSC_CAPS_WindU_IsbL-0150_RLatLon0.03_PT003H.grib2 2026-05-05 18:08 923K
20260505T12Z_MSC_CAPS_WindU_IsbL-0175_RLatLon0.03_PT003H.grib2 2026-05-05 18:08 729K
20260505T12Z_MSC_CAPS_WindU_IsbL-0200_RLatLon0.03_PT003H.grib2 2026-05-05 18:08 882K
20260505T12Z_MSC_CAPS_WindU_IsbL-0225_RLatLon0.03_PT003H.grib2 2026-05-05 18:08 900K
20260505T12Z_MSC_CAPS_WindU_IsbL-0250_RLatLon0.03_PT003H.grib2 2026-05-05 18:08 920K
20260505T12Z_MSC_CAPS_WindU_IsbL-0275_RLatLon0.03_PT003H.grib2 2026-05-05 18:08 927K
20260505T12Z_MSC_CAPS_WindU_IsbL-0300_RLatLon0.03_PT003H.grib2 2026-05-05 18:08 726K
20260505T12Z_MSC_CAPS_WindU_IsbL-0350_RLatLon0.03_PT003H.grib2 2026-05-05 18:08 741K
20260505T12Z_MSC_CAPS_WindU_IsbL-0400_RLatLon0.03_PT003H.grib2 2026-05-05 18:08 966K
20260505T12Z_MSC_CAPS_WindU_IsbL-0450_RLatLon0.03_PT003H.grib2 2026-05-05 18:08 1.0M
20260505T12Z_MSC_CAPS_WindU_IsbL-0500_RLatLon0.03_PT003H.grib2 2026-05-05 18:08 1.0M
20260505T12Z_MSC_CAPS_WindU_IsbL-0550_RLatLon0.03_PT003H.grib2 2026-05-05 18:08 1.0M
20260505T12Z_MSC_CAPS_WindU_IsbL-0600_RLatLon0.03_PT003H.grib2 2026-05-05 18:08 1.0M
20260505T12Z_MSC_CAPS_WindU_IsbL-0650_RLatLon0.03_PT003H.grib2 2026-05-05 18:08 1.0M
20260505T12Z_MSC_CAPS_WindU_IsbL-0700_RLatLon0.03_PT003H.grib2 2026-05-05 18:08 1.1M
20260505T12Z_MSC_CAPS_WindU_IsbL-0750_RLatLon0.03_PT003H.grib2 2026-05-05 18:08 1.2M
20260505T12Z_MSC_CAPS_WindU_IsbL-0800_RLatLon0.03_PT003H.grib2 2026-05-05 18:08 1.1M
20260505T12Z_MSC_CAPS_WindU_IsbL-0850_RLatLon0.03_PT003H.grib2 2026-05-05 18:08 1.2M
20260505T12Z_MSC_CAPS_WindU_IsbL-0875_RLatLon0.03_PT003H.grib2 2026-05-05 18:08 1.2M
20260505T12Z_MSC_CAPS_WindU_IsbL-0900_RLatLon0.03_PT003H.grib2 2026-05-05 18:08 1.3M
20260505T12Z_MSC_CAPS_WindU_IsbL-0925_RLatLon0.03_PT003H.grib2 2026-05-05 18:08 1.3M
20260505T12Z_MSC_CAPS_WindU_IsbL-0950_RLatLon0.03_PT003H.grib2 2026-05-05 18:08 1.4M
20260505T12Z_MSC_CAPS_WindU_IsbL-0970_RLatLon0.03_PT003H.grib2 2026-05-05 18:08 1.4M
20260505T12Z_MSC_CAPS_WindU_IsbL-0985_RLatLon0.03_PT003H.grib2 2026-05-05 18:08 1.8M
20260505T12Z_MSC_CAPS_WindU_IsbL-1000_RLatLon0.03_PT003H.grib2 2026-05-05 18:08 1.8M
20260505T12Z_MSC_CAPS_WindU_IsbL-1015_RLatLon0.03_PT003H.grib2 2026-05-05 18:08 1.9M
20260505T12Z_MSC_CAPS_WindV_AGL-10m_RLatLon0.03_PT003H.grib2 2026-05-05 18:08 1.9M
20260505T12Z_MSC_CAPS_WindV_AGL-120m_RLatLon0.03_PT003H.grib2 2026-05-05 18:08 933K
20260505T12Z_MSC_CAPS_WindV_AGL-40m_RLatLon0.03_PT003H.grib2 2026-05-05 18:08 967K
20260505T12Z_MSC_CAPS_WindV_AGL-80m_RLatLon0.03_PT003H.grib2 2026-05-05 18:08 937K
20260505T12Z_MSC_CAPS_WindV_IsbL-0050_RLatLon0.03_PT003H.grib2 2026-05-05 18:08 786K
20260505T12Z_MSC_CAPS_WindV_IsbL-0100_RLatLon0.03_PT003H.grib2 2026-05-05 18:08 795K
20260505T12Z_MSC_CAPS_WindV_IsbL-0150_RLatLon0.03_PT003H.grib2 2026-05-05 18:08 704K
20260505T12Z_MSC_CAPS_WindV_IsbL-0175_RLatLon0.03_PT003H.grib2 2026-05-05 18:08 723K
20260505T12Z_MSC_CAPS_WindV_IsbL-0200_RLatLon0.03_PT003H.grib2 2026-05-05 18:08 871K
20260505T12Z_MSC_CAPS_WindV_IsbL-0225_RLatLon0.03_PT003H.grib2 2026-05-05 18:08 892K
20260505T12Z_MSC_CAPS_WindV_IsbL-0250_RLatLon0.03_PT003H.grib2 2026-05-05 18:08 915K
20260505T12Z_MSC_CAPS_WindV_IsbL-0275_RLatLon0.03_PT003H.grib2 2026-05-05 18:08 714K
20260505T12Z_MSC_CAPS_WindV_IsbL-0300_RLatLon0.03_PT003H.grib2 2026-05-05 18:08 722K
20260505T12Z_MSC_CAPS_WindV_IsbL-0350_RLatLon0.03_PT003H.grib2 2026-05-05 18:08 736K
20260505T12Z_MSC_CAPS_WindV_IsbL-0400_RLatLon0.03_PT003H.grib2 2026-05-05 18:08 961K
20260505T12Z_MSC_CAPS_WindV_IsbL-0450_RLatLon0.03_PT003H.grib2 2026-05-05 18:08 1.0M
20260505T12Z_MSC_CAPS_WindV_IsbL-0500_RLatLon0.03_PT003H.grib2 2026-05-05 18:08 1.0M
20260505T12Z_MSC_CAPS_WindV_IsbL-0550_RLatLon0.03_PT003H.grib2 2026-05-05 18:08 901K
20260505T12Z_MSC_CAPS_WindV_IsbL-0600_RLatLon0.03_PT003H.grib2 2026-05-05 18:08 927K
20260505T12Z_MSC_CAPS_WindV_IsbL-0650_RLatLon0.03_PT003H.grib2 2026-05-05 18:08 1.2M
20260505T12Z_MSC_CAPS_WindV_IsbL-0700_RLatLon0.03_PT003H.grib2 2026-05-05 18:08 1.3M
20260505T12Z_MSC_CAPS_WindV_IsbL-0750_RLatLon0.03_PT003H.grib2 2026-05-05 18:08 1.1M
20260505T12Z_MSC_CAPS_WindV_IsbL-0800_RLatLon0.03_PT003H.grib2 2026-05-05 18:08 1.1M
20260505T12Z_MSC_CAPS_WindV_IsbL-0850_RLatLon0.03_PT003H.grib2 2026-05-05 18:08 1.2M
20260505T12Z_MSC_CAPS_WindV_IsbL-0875_RLatLon0.03_PT003H.grib2 2026-05-05 18:08 1.2M
20260505T12Z_MSC_CAPS_WindV_IsbL-0900_RLatLon0.03_PT003H.grib2 2026-05-05 18:08 1.3M
20260505T12Z_MSC_CAPS_WindV_IsbL-0925_RLatLon0.03_PT003H.grib2 2026-05-05 18:08 1.3M
20260505T12Z_MSC_CAPS_WindV_IsbL-0950_RLatLon0.03_PT003H.grib2 2026-05-05 18:08 1.4M
20260505T12Z_MSC_CAPS_WindV_IsbL-0970_RLatLon0.03_PT003H.grib2 2026-05-05 18:08 1.4M
20260505T12Z_MSC_CAPS_WindV_IsbL-0985_RLatLon0.03_PT003H.grib2 2026-05-05 18:08 1.5M
20260505T12Z_MSC_CAPS_WindV_IsbL-1000_RLatLon0.03_PT003H.grib2 2026-05-05 18:08 1.5M
20260505T12Z_MSC_CAPS_WindV_IsbL-1015_RLatLon0.03_PT003H.grib2 2026-05-05 18:08 1.9M